Regional Weather Roundup
Issued by NWS Pendleton, OR

Home | Current Version | Previous Version | Text Only | Print | Product List | Glossary On
Versions: 1 2 3 4 5 6 7 8 9 10 11 12 13 14 15 16 17 18 19 20 21 22 23 24 25 26 27 28 29 30 31 32 33 34 35 36 37 38 39 40 41 42 43 44 45 46 47 48 49 50
000
ASUS46 KPDT 290425
RWRPDT
PENDLETON REGIONAL WEATHER ROUNDUP
NATIONAL WEATHER SERVICE PENDLETON OREGON
900 PM PDT THU MAY 28 2015

NOTE: FAIR INDICATES FEW OR NO CLOUDS BELOW 12,000 FEET WITH NO
SIGNIFICANT WEATHER AND/OR OBSTRUCTIONS TO VISIBILITY.

# INDICATES UNOFFICIAL STATION AND DATA

WAZ520-290510-
EAST SLOPES OF WASHINGTON CASCADES

CITY            SKY/WX      TMP DP  RH  WIND    PRES   REMARKS
#BULLFROG 2SW   N/A         63  53  70  S1      27.65R
#BUMPING DAM    N/A         58  N/A N/A N1      N/A
#CLE ELUM HS    N/A         65  54  68  CALM    29.97R
#CLE ELUM LAKE  N/A         62  52  70  CALM    29.94R
#CLIFFDEL 2NW   N/A         62  57  84  CALM    N/A
#GLENWOOD       N/A         68  56  65  CALM    29.93R
#NELSON         N/A         67  56  68  CALM    29.96R
#NELSON 3SW     N/A         62  55  78  CALM    30.14R
#NILE           N/A         60  58  93  CALM    29.28R
#RONALD 2NW     N/A         63  36  36  N2      29.94R
#SNOWDEN        N/A         65  39  38  CALM    N/A
#TEANAWAY 4NE   N/A         67  57  70  CALM    N/A
#TROUT LAKE 1NE N/A         71  53  53  CALM    29.93R
$$

WAZ521-290510-
SIMCOE HIGHLANDS

CITY            SKY/WX      TMP DP  RH  WIND    PRES   REMARKS
#BICKLETON HS   N/A         61  39  44  CALM    N/A
#CENTERVILLE 4W N/A         73  52  48  NW5     29.74R
#CENTERVILLE 1SWN/A         69  52  55  W5      29.87R
#GOLDENDALE     N/A         79  45  30  W1      N/A
#GOLDENDALE 5WNWN/A         72  53  51  CALM    29.90R
#GOODNOE HILLS  N/A         78  42  28  NE7     N/A
#LYLE 6NE       N/A         75  53  46  CALM    29.88R
$$

WAZ026-290510-
KITTITAS VALLEY

CITY            SKY/WX      TMP DP  RH  WIND    PRES   REMARKS
ELLENSBURG AP   MOCLDY      72  53  51  NW12    30.00R
YTC-OPS AREA    N/A         69  42  37  E10     30.03S
#ELLENSBURG CWU N/A         72  53  51  NW7     29.88R
#ELLENSBURG 3NE N/A         70  55  59  N5      30.00R
#KITTITAS 4N    N/A         69  53  57  N6      28.32R
#KITTITAS 3S    N/A         65  54  68  CALM    29.92R
#THORP 6N       N/A         68  52  57  NW8     29.96R
$$

WAZ027-290510-
YAKIMA VALLEY

CITY            SKY/WX      TMP DP  RH  WIND    PRES   REMARKS
SUNNYSIDE AP    PTCLDY      69  52  55  NE6     29.95R
YAKIMA AIRPORT  PTCLDY      77  51  40  NW8     29.97R
#DONALD 2NE     N/A         75  28  18  N1      28.81R
#GRANDVIEW      N/A         74  50  43  CALM    29.93R
#MABTON         N/A         75  50  41  E1      29.93R
#MOXEE 2E       N/A         78  26  15  SW5     29.88F
#NACHES 2SW     N/A         69  56  63  W8      29.98S
#OUTLOOK DOT    N/A         N/A N/A N/A E5      N/A
#SELAH 8E       N/A         67  42  40  NW3     N/A
#TERRACE HTS    N/A         73  50  44  CALM    29.89R
#TOPPENISH      N/A         76  51  42  CALM    29.83R
#WAPATO 4NE     N/A         75  28  18  N1      28.81R
#WEST VALLEY    N/A         75  52  45  NW6     29.89R
#W YAKIMA       N/A         73  54  51  NW2     29.92R
#WHITE SWAN 5E  N/A         72  54  53  NE3     29.91R
#WILEY CITY 3W  N/A         73  47  40  CALM    29.95R
$$

WAZ028-290510-
LOWER COLUMBIA BASIN...WASHINGTON

CITY            SKY/WX      TMP DP  RH  WIND    PRES   REMARKS
HANFORD         MOCLDY      76  39  26  SE5     29.92R
PASCO           PTCLDY      73  53  49  N5      29.93R
RICHLAND AWOS   PTCLDY      75  54  48  CALM    29.93R
#BASIN CITY 5SW N/A         67  55  65  NE1     29.94R
#BENTON CITY    N/A         76  46  34  CALM    29.82R
#CONNELL 5N     N/A         74  49  41  E1      29.93R
#CONNELL 5NW    N/A         73  55  53  W1      29.89R
#ELTOPIA        N/A         74  54  50  CALM    29.89R
#ELTOPIA 6NW    N/A         76  54  46  N1      28.93R
#KAHLOTUS       N/A         76  47  36  S6      29.93R
#KENNEWICK      N/A         63  53  70  S1      27.65R
#KENNEWICK 3S   N/A         77  51  40  CALM    29.91R
#PATERSON       N/A         79  46  31  N6      29.89R
#PROSSER        N/A         77  40  26  E1      29.91R
#SAGEMOOR 2W    N/A         75  53  46  CALM    29.77R
#TOUCHET 2S     N/A         67  58  73  CALM    29.89R
#WEST PASCO     N/A         78  52  40  CALM    29.91S
$$

WAZ029-290510-
FOOTHILLS OF THE BLUES...WASHINGTON

CITY            SKY/WX      TMP DP  RH  WIND    PRES   REMARKS
WALLA WALLA AP  CLEAR       73  56  55  E9      29.96S
#DAYTON SCHOOL  N/A         70  45  41  N1      30.01R
#LOWDEN 2SE     N/A         71  61  71  CALM    29.90S
#PLEASANT VIEW 1N/A         71  49  46  NE1     29.97R
#PRESCOTT       N/A         66  56  70  CALM    29.91R
#SUDBURY        N/A         67  N/A N/A CALM    N/A
#WHITMAN COLLEGEN/A         77  57  50  N1      29.96S
#WAITSBURG 8N   N/A         64  27  24  N5      29.82S
#WALLA WALLA U  N/A         80  55  42  CALM    29.90S
#WHITMAN MISSIONN/A         73  59  62  CALM    29.93R
$$

WAZ030-290510-
BLUE MOUNTAINS...WASHINGTON

CITY            SKY/WX      TMP DP  RH  WIND    PRES   REMARKS
#DIXIE 5SE      N/A         67  46  47  E9      29.99S
$$

ORZ009-041-WAZ024-290510-
COLUMBIA RIVER GORGE

CITY            SKY/WX      TMP DP  RH  WIND    PRES   REMARKS
HOOD RIVER AP   PTCLDY      73  54  51  CALM    29.94R
THE DALLES AP   PTCLDY      79  51  38  NW12    29.90R
#ARLINGTON AIRPON/A         76  42  30  E6      N/A
#CELILO DOT     N/A         84  51  32  CALM    N/A
#MOSIER 1S      N/A         76  39  26  W5      29.94R
#MURDOCK        N/A         82  54  38  N14     29.91R
#RUFUS DOT      N/A         83  51  33  N3      N/A

$$

ORZ510-290510-
NORTH CENTRAL OREGON

CITY            SKY/WX      TMP DP  RH  WIND    PRES   REMARKS
#CHENOWITH 1W   N/A         73  50  44  W13     N/A
#COW CYN RST AREN/A         73  N/A N/A N6      N/A
#DUFUR 9E       N/A         72  51  48  CALM    29.95R
#GRASS VALLEY 1SN/A         70  48  46  CALM    29.92R
#KENT DOT       N/A         72  37  28  N6      N/A
#MAUPIN SCHOOL  N/A         80  49  34  CALM    29.94R
#MORO SCHOOL    N/A         72  54  53  CALM    29.99R
#SHANIKO 5WSW   N/A         72  36  27  N8      N/A
#SHANIKO 4NW    N/A         69  41  36  N7      30.06S
#TYGH VALLEY 2NEN/A         79  49  35  N8      29.88R
#WAPANITIA AIRPON/A         73  48  41  N1      29.91R
#WASCO DOT      N/A         71  48  44  CALM    N/A
#WASCO AIRPORT  N/A         77  43  30  NE2     N/A
#WASCO 5NE      N/A         62  45  54  CALM    29.91R
$$

ORZ511-290510-
CENTRAL OREGON

CITY            SKY/WX      TMP DP  RH  WIND    PRES   REMARKS
BEND AIRPORT    PTCLDY      68  39  35  CALM    30.05R
MADRAS AIRPORT  PTCLDY      70  45  41  N3      30.01S
PRINEVILLE AP   PTCLDY      68  43  40  N6      30.03R
REDMOND AIRPORT PTCLDY      69  43  39  N7      30.01F
#BEND 1SW       N/A         64  44  48  CALM    N/A
#BEND-AWBREY    N/A         68  47  47  CALM    29.92R
#BEND-KIM LN    N/A         68  45  44  CALM    30.03R
#CROOKED RVR RANN/A         73  46  38  CALM    29.89R
#CULVER         N/A         72  46  39  CALM    29.97R
#LAKE BILLY CHINN/A         74  18  12  NW12    30.06R
#POWELL BUTTE 3EN/A         72  43  35  N3      N/A
#POWELL BUTTE   N/A         67  44  43  SW1     29.67S
#PRINEVILLE 3N  N/A         64  48  56  N1      29.87R
#WARM SPRINGS   N/A         77  55  47  S6      29.92S

$$


ORZ509-290510-
EAST SLOPES OF OREGON CASCADES

CITY            SKY/WX      TMP DP  RH  WIND    PRES   REMARKS
#BLUE BOX PASS  N/A         62   7  11  N6      N/A
#CAMP SHERMAN   N/A         64  50  60  CALM    29.94R
#LA PINE 4NW    N/A         63  49  60  CALM    29.97R
#SISTERS AIRPOR N/A         69  57  66  N1      30.17S
#SISTERS ODOT   N/A         72  N/A N/A CALM    N/A
#SISTERS 1NW    N/A         71  48  44  N6      N/A
#SISTERS 3N     N/A         64  48  56  CALM    30.04R
#SUNRIVER       N/A         65  44  46  CALM    29.83R
#TUMALO 3W      N/A         68  46  45  W7      29.79R
#WANOGA BUTTE D N/A         59  36  42  NE3     N/A

$$

ORZ044-290510-
LOWER COLUMBIA BASIN...OREGON

CITY            SKY/WX      TMP DP  RH  WIND    PRES   REMARKS
HERMISTON       PTCLDY      71  53  53  E3      29.93R
#BOARDMAN SCHOOLN/A         76  51  42  CALM    29.93R
#ECHO 8SW       N/A         71  53  53  N2      29.95R
#IONE SCHOOL    N/A         75  48  38  CALM    29.92R
#IRRIGON 4NW    N/A         78  43  29  CALM    N/A
#UMATILLA SCHOOLN/A         77  63  62  CALM    29.98S
#UMATILLA       N/A         79  50  36  CALM    29.83S
$$

ORZ507-290510-
NORTHERN FOOTHILLS OF THE BLUES

CITY            SKY/WX      TMP DP  RH  WIND    PRES   REMARKS
PENDLETON AIRPT CLEAR       69  51  53  NE12    29.97R
#ADAMS 3WNW     N/A         66  54  65  NE2     29.92R
#ATHENA         N/A         67  55  65  CALM    29.95S
#CAYUSE         N/A         71  53  53  E6      29.91S
#HELIX SCHOOL   N/A         69  50  51  NE3     29.93S
#HELIX 3N       N/A         67  50  54  NE5     29.97S
#HOLDMAN 6E     N/A         68  50  53  SW6     29.75R
#M-F FERNDALE   N/A         72  57  59  CALM    29.94S
#M-F GROVE ELEM N/A         73  54  51  CALM    29.95S
#M-FREEWATER 5SEN/A         68  55  63  CALM    29.97R
#PENDLETON DNTN N/A         74  45  35  NE2     29.96R
#PDT AQUATIC CTRN/A         74  47  38  NE6     29.98S
#PENDLETON 5NE  N/A         65  56  73  CALM    29.94R
#PDT SUNRIDGE   N/A         71  53  53  CALM    29.97R
#PENDLETON 7NW  N/A         74  55  51  CALM    27.62S
#PILOT ROCK     N/A         66  50  56  CALM    30.01R
#TUTUILLA       N/A         67  54  63  CALM    29.95R
#UMAPINE 2E     N/A         66  58  75  CALM    29.91S
#WESTON SCHOOL  N/A         68  49  51  CALM    29.95R

$$

ORZ508-290510-
SOUTHERN FOOTHILLS OF THE BLUES

CITY            SKY/WX      TMP DP  RH  WIND    PRES   REMARKS
#AJAX           N/A         71  40  32  NE5     29.94R
#CONDON SCHOOL  N/A         68  48  49  CALM    29.99R
#CONDON 5W      N/A         68  43  40  NE6     30.03R
#FOSSIL SCHOOL  N/A         70  47  44  CALM    29.98R
#HEPPNER EOC    N/A         71  45  39  E6      29.86R
#HEPPNER 4NE    N/A         65  46  50  E1      29.93R
#LEXINGTON 2SE  N/A         76  46  34  E3      29.93R
#RUGGS 5NE      N/A         67  43  42  E5      30.20F
#RUGGS 2SW      N/A         66  46  48  SW1     29.95R

$$

ORZ502-503-290510-
BLUE MOUNTAINS

CITY            SKY/WX      TMP DP  RH  WIND    PRES   REMARKS
MEACHAM         CLEAR       59  49  69  CALM    30.10R
#BATTLE MTN DOT N/A         62  46  56  N1      N/A
#HEPPNER 15SE   N/A         58  47  67  CALM    30.02R
#LADD CYN SMT   N/A         61  39  44  N6      N/A
#LONG CREEK HS  N/A         57  47  69  CALM    30.03R
#N POWDER DOT   N/A         67  44  43  NW2     N/A
#PIKES PEAK     N/A         67  47  49  E2      27.99S
#TOLLGATE       N/A         56  46  69  CALM    30.06S
#TROY SCHOOL    N/A         71  49  46  CALM    29.81R
#UKIAH          N/A         58  50  75  CALM    30.02R
#WESTON 4E      N/A         65  48  54  CALM    29.90S
$$

ORZ505-290510-
JOHN DAY BASIN

CITY            SKY/WX      TMP DP  RH  WIND    PRES   REMARKS
JOHN DAY        CLEAR       68  40  36  N3      30.08R
#JOHN DAY KJDY  N/A         68  43  40  CALM    29.97R
#DAYVILLE SCHOOLN/A         71  35  27  CALM    29.98R
#MITCHELL       N/A         67  52  59  CALM    30.16R
#MONUMENT HS    N/A         69  47  45  CALM    29.98S
#MT. VERNON 5SE N/A         61  39  44  CALM    30.04R
$$

ORZ506-290510-
OCHOCO AND JOHN DAY HIGHLANDS

CITY            SKY/WX      TMP DP  RH  WIND    PRES   REMARKS
#BUCK CREEK DOT N/A         71  71  100 CALM    N/A
#PAULINA SCHOOL N/A         64  42  45  CALM    30.03R
#PINE MTN OBS   N/A         59  37  44  CALM    N/A
#PRAIRIE CITY   N/A         59  48  67  E1      30.00R
#SENECA         N/A         62  N/A N/A W1      N/A
#SENECA 9NW     N/A         54  41  61  CALM    29.98R
$$

ORZ049-290510-
GRANDE RONDE VALLEY

CITY            SKY/WX      TMP DP  RH  WIND    PRES   REMARKS
LA GRANDE       CLEAR       63  39  41  SW6     30.03R
#COVE           N/A         62  52  70  NW2     30.05R
#COVE SCHOOL    N/A         64  47  54  CALM    30.02R
#ELGIN 3N       N/A         63  47  56  CALM    30.04R
#ELGIN 1E       N/A         67  49  52  CALM    N/A
#ISLAND CITY 4N N/A         70  59  68  CALM    29.94R
#LADD CYN DOT   N/A         65  42  43  SE14    N/A
#LA GRANDE ELEM N/A         65  48  54  CALM    30.06R
#UNION 1S       N/A         61  48  62  CALM    29.88R
$$

ORZ050-290510-
WALLOWA COUNTY

CITY            SKY/WX      TMP DP  RH  WIND    PRES   REMARKS
JOSEPH AIRPORT  N/A         61  45  56  SE5     30.13R
#ENTERPRISE HS  N/A         61  50  67  CALM    30.09R
#IMNAHA SCHOOL  N/A         65  51  60  CALM    30.01R
#IMNAHA 10S     N/A         61  49  65  SW2     30.05R
#JOSEPH 3N      N/A         56  43  62  S3      30.13R
#JOSEPH 3W      N/A         55  45  69  SW3     29.98R
#LOSTINE        N/A         59  48  67  SW2     29.80R
#MT HOWARD 8000 N/A         47  39  74  CALM    30.32R
#PROMISE 1S     N/A         65  46  50  W3      30.08R
#SHEEP RDG 7000 N/A         51  42  71  CALM    30.07S
#WALLOWA SCHOOL N/A         63  51  65  CALM    30.89R



$$



USA.gov is the U.S. government's official web portal to all federal, state and local government web resources and services.